Hourly Data Report for October 12, 2016

All times are specified in Local Standard Time (LST). Add 1 hour to adjust for Daylight Saving Time where and when it is observed.

POND INLET A
NUNAVUT

72°41'22.000" N
77°58'08.000" W
61.60 m
2403206
71095
YIO

Related Data

No related data is available for this station

Download Data

Hourly Data (October 2016)
Hourly Data Report for October 12, 2016
Temp Definition
°C
Dew Point Temp Definition
°C
Rel Hum Definition
%
Wind Dir Definition
10's deg

Wind Spd Definition
km/h
Visibility Definition
km
Stn Press Definition
kPa
Hmdx Definition


Wind Chill Definition


Weather Definition


TIME
00:00 Legend Double Dagger -10.2 -12.7 82 14 21 16.1 100.02   -18 LegendNANA
01:00 Legend Double Dagger -9.9 -12.0 85 15 22 16.1 100.05   -18 Snow
02:00 Legend Double Dagger -9.2 -11.4 84 16 21 16.1 100.07   -17 Snow
03:00 Legend Double Dagger -8.6 -10.1 89 16 21 6.4 100.10   -16 Snow
04:00 Legend Double Dagger -8.3 -9.7 90 21 15 4.8 100.14   -15 Snow
05:00 Legend Double Dagger -8.5 -10.1 88 22 17 4.0 100.15   -15 Snow
06:00 Legend Double Dagger -8.7 -10.6 86 21 24 16.1 100.19   -17 Snow
07:00 Legend Double Dagger -8.8 -10.9 85 21 24 16.1 100.22   -17 LegendNANA
08:00 Legend Double Dagger -9.0 -11.2 84 20 24 16.1 100.24   -17 Snow
09:00 Legend Double Dagger -8.3 -11.0 81 22 26 16.1 100.27   -17 Snow
10:00 Legend Double Dagger -8.0 -10.7 81 21 26 16.1 100.30   -16 Snow
11:00 Legend Double Dagger -8.0 -10.3 84 22 26 16.1 100.34   -16 Snow
12:00 Legend Double Dagger -8.2 -10.4 84 22 32 4.8 100.39   -17 Snow
13:00 Legend Double Dagger -8.2 -10.3 85 21 24 8.1 100.44   -16 Snow
14:00 Legend Double Dagger -8.3 -10.5 84 22 28 16.1 100.49   -17 LegendNANA
15:00 Legend Double Dagger -8.5 -11.0 82 21 26 16.1 100.54   -17 Snow
16:00 Legend Double Dagger -8.5 -11.0 82 22 21 16.1 100.59   -16 LegendNANA
17:00 Legend Double Dagger -8.9 -11.5 81 21 21 16.1 100.64   -17 LegendNANA
18:00 Legend Double Dagger -9.1 -12.4 77 20 24 16.1 100.68   -17 LegendNANA
19:00 Legend Double Dagger -9.1 -11.9 80 20 21 16.1 100.74   -17 Snow
20:00 Legend Double Dagger -9.1 -11.8 81 20 22 16.1 100.76   -17 Snow
21:00 Legend Double Dagger -9.3 -12.0 81 17 18 8.1 100.80   -17 Snow
22:00 Legend Double Dagger -9.1 -12.1 79 18 17 16.1 100.85   -16 Snow
23:00 Legend Double Dagger -9.6 -12.4 80 14 13 16.1 100.86   -16 LegendNANA

Notes on Data Quality.

Legend

  • E = Estimated
  • M = Missing
  • NA = Not Available
  • ‡ = Partner data that is not subject to review by the National Climate Archives
Date modified: